Year,Month,Day,Hour,Minute,Value (Times are PST for temperature in C)
2010,08,16,00,00,18.50
2010,08,16,00,01,18.50
2010,08,16,00,02,18.50
2010,08,16,00,03,18.40
2010,08,16,00,04,18.40
2010,08,16,00,05,18.40
2010,08,16,00,06,18.40
2010,08,16,00,07,18.40
2010,08,16,00,08,18.40
2010,08,16,00,09,18.30
2010,08,16,00,10,18.30
2010,08,16,00,11,18.30
2010,08,16,00,12,18.30
2010,08,16,00,13,18.30
2010,08,16,00,14,18.30
2010,08,16,00,15,18.20
2010,08,16,00,16,18.20
2010,08,16,00,17,18.20
2010,08,16,00,18,18.20
2010,08,16,00,19,18.20
2010,08,16,00,20,18.20
2010,08,16,00,21,18.20
2010,08,16,00,22,18.10
2010,08,16,00,23,18.10
2010,08,16,00,24,18.10
2010,08,16,00,25,18.00
2010,08,16,00,26,17.90
2010,08,16,00,27,17.90
2010,08,16,00,28,17.90
2010,08,16,00,29,17.90
2010,08,16,00,30,17.90
2010,08,16,00,31,17.90
2010,08,16,00,32,17.90
2010,08,16,00,33,17.90
2010,08,16,00,34,17.90
2010,08,16,00,35,17.90
2010,08,16,00,36,17.90
2010,08,16,00,37,17.90
2010,08,16,00,38,17.90
2010,08,16,00,39,17.80
2010,08,16,00,40,17.80
2010,08,16,00,41,17.80
2010,08,16,00,42,17.80
2010,08,16,00,43,17.80
2010,08,16,00,44,17.80
2010,08,16,00,45,17.80
2010,08,16,00,46,17.70
2010,08,16,00,47,17.70
2010,08,16,00,48,17.70
2010,08,16,00,49,17.70
2010,08,16,00,50,17.70
2010,08,16,00,51,17.60
2010,08,16,00,52,17.60
2010,08,16,00,53,17.60
2010,08,16,00,54,17.60
2010,08,16,00,55,17.60
2010,08,16,00,56,17.50
2010,08,16,00,57,17.50
2010,08,16,00,58,17.50
2010,08,16,00,59,17.40
2010,08,16,01,00,17.40
2010,08,16,01,01,17.40
2010,08,16,01,02,17.40
2010,08,16,01,03,17.40
2010,08,16,01,04,17.30
2010,08,16,01,05,17.30
2010,08,16,01,06,17.30
2010,08,16,01,07,17.30
2010,08,16,01,08,17.30
2010,08,16,01,09,17.30
2010,08,16,01,10,17.30
2010,08,16,01,11,17.30
2010,08,16,01,12,17.30
2010,08,16,01,13,17.30
2010,08,16,01,14,17.30
2010,08,16,01,15,17.30
2010,08,16,01,16,17.30
2010,08,16,01,17,17.30
2010,08,16,01,18,17.30
2010,08,16,01,19,17.30
2010,08,16,01,20,17.30
2010,08,16,01,21,17.30
2010,08,16,01,22,17.30
2010,08,16,01,23,17.30
2010,08,16,01,24,17.30
2010,08,16,01,25,17.30
2010,08,16,01,26,17.30
2010,08,16,01,27,17.30
2010,08,16,01,28,17.30
2010,08,16,01,29,17.30
2010,08,16,01,30,17.30
2010,08,16,01,31,17.30
2010,08,16,01,32,17.30
2010,08,16,01,33,17.20
2010,08,16,01,34,17.20
2010,08,16,01,35,17.20
2010,08,16,01,36,17.10
2010,08,16,01,37,17.10
2010,08,16,01,38,17.10
2010,08,16,01,39,17.00
2010,08,16,01,40,17.00
2010,08,16,01,41,17.00
2010,08,16,01,42,17.00
2010,08,16,01,43,17.00
2010,08,16,01,44,16.90
2010,08,16,01,45,16.90
2010,08,16,01,46,16.90
2010,08,16,01,47,16.90
2010,08,16,01,48,16.90
2010,08,16,01,49,16.90
2010,08,16,01,50,16.90
2010,08,16,01,51,16.90
2010,08,16,01,52,16.90
2010,08,16,01,53,16.90
2010,08,16,01,54,16.90
2010,08,16,01,55,16.90
2010,08,16,01,56,16.90
2010,08,16,01,57,16.90
2010,08,16,01,58,16.90
2010,08,16,01,59,16.90
2010,08,16,02,00,16.90
2010,08,16,02,01,16.80
2010,08,16,02,02,16.80
2010,08,16,02,03,16.80
2010,08,16,02,04,16.80
2010,08,16,02,05,16.80
2010,08,16,02,06,16.80
2010,08,16,02,07,16.70
2010,08,16,02,08,16.70
2010,08,16,02,09,16.70
2010,08,16,02,10,16.70
2010,08,16,02,11,16.70
2010,08,16,02,12,16.70
2010,08,16,02,13,16.70
2010,08,16,02,14,16.70
2010,08,16,02,15,16.70
2010,08,16,02,16,16.70
2010,08,16,02,17,16.60
2010,08,16,02,18,16.60
2010,08,16,02,19,16.60
2010,08,16,02,20,16.60
2010,08,16,02,21,16.60
2010,08,16,02,22,16.60
2010,08,16,02,23,16.60
2010,08,16,02,24,16.60
2010,08,16,02,25,16.60
2010,08,16,02,26,16.60
2010,08,16,02,27,16.60
2010,08,16,02,28,16.60
2010,08,16,02,29,16.60
2010,08,16,02,30,16.60
2010,08,16,02,31,16.60
2010,08,16,02,32,16.60
2010,08,16,02,33,16.50
2010,08,16,02,34,16.40
2010,08,16,02,35,16.40
2010,08,16,02,36,16.40
2010,08,16,02,37,16.40
2010,08,16,02,38,16.40
2010,08,16,02,39,16.40
2010,08,16,02,40,16.40
2010,08,16,02,41,16.40
2010,08,16,02,42,16.40
2010,08,16,02,43,16.40
2010,08,16,02,44,16.40
2010,08,16,02,45,16.40
2010,08,16,02,46,16.30
2010,08,16,02,47,16.30
2010,08,16,02,48,16.30
2010,08,16,02,49,16.30
2010,08,16,02,50,16.30
2010,08,16,02,51,16.30
2010,08,16,02,52,16.30
2010,08,16,02,53,16.30
2010,08,16,02,54,16.30
2010,08,16,02,55,16.30
2010,08,16,02,56,16.30
2010,08,16,02,57,16.30
2010,08,16,02,58,16.30
2010,08,16,02,59,16.30
2010,08,16,03,00,16.30
2010,08,16,03,01,16.30
2010,08,16,03,02,16.30
2010,08,16,03,03,16.30
2010,08,16,03,04,16.30
2010,08,16,03,05,16.30
2010,08,16,03,06,16.30
2010,08,16,03,07,16.30
2010,08,16,03,08,16.30
2010,08,16,03,09,16.30
2010,08,16,03,10,16.30
2010,08,16,03,11,16.30
2010,08,16,03,12,16.30
2010,08,16,03,13,16.30
2010,08,16,03,14,16.30
2010,08,16,03,15,16.40
2010,08,16,03,16,16.40
2010,08,16,03,17,16.40
2010,08,16,03,18,16.40
2010,08,16,03,19,16.40
2010,08,16,03,20,16.40
2010,08,16,03,21,16.40
2010,08,16,03,22,16.40
2010,08,16,03,23,16.40
2010,08,16,03,24,16.40
2010,08,16,03,25,16.40
2010,08,16,03,26,16.40
2010,08,16,03,27,16.40
2010,08,16,03,28,16.30
2010,08,16,03,29,16.30
2010,08,16,03,30,16.30
2010,08,16,03,31,16.30
2010,08,16,03,32,16.20
2010,08,16,03,33,16.20
2010,08,16,03,34,16.20
2010,08,16,03,35,16.20
2010,08,16,03,36,16.20
2010,08,16,03,37,16.10
2010,08,16,03,38,16.10
2010,08,16,03,39,16.10
2010,08,16,03,40,16.10
2010,08,16,03,41,16.10
2010,08,16,03,42,16.10
2010,08,16,03,43,16.10
2010,08,16,03,44,16.10
2010,08,16,03,45,16.10
2010,08,16,03,46,16.10
2010,08,16,03,47,16.10
2010,08,16,03,48,16.00
2010,08,16,03,49,15.90
2010,08,16,03,50,15.90
2010,08,16,03,51,15.90
2010,08,16,03,52,15.90
2010,08,16,03,53,15.90
2010,08,16,03,54,15.90
2010,08,16,03,55,15.90
2010,08,16,03,56,15.80
2010,08,16,03,57,15.80
2010,08,16,03,58,15.80
2010,08,16,03,59,15.80
2010,08,16,04,00,15.80
2010,08,16,04,01,15.80
2010,08,16,04,02,15.80
2010,08,16,04,03,15.80
2010,08,16,04,04,15.70
2010,08,16,04,05,15.70
2010,08,16,04,06,15.70
2010,08,16,04,07,15.80
2010,08,16,04,08,15.80
2010,08,16,04,09,15.80
2010,08,16,04,10,15.80
2010,08,16,04,11,15.70
2010,08,16,04,12,15.70
2010,08,16,04,13,15.70
2010,08,16,04,14,15.70
2010,08,16,04,15,15.70
2010,08,16,04,16,15.70
2010,08,16,04,17,15.70
2010,08,16,04,18,15.70
2010,08,16,04,19,15.70
2010,08,16,04,20,15.70
2010,08,16,04,21,15.70
2010,08,16,04,22,15.70
2010,08,16,04,23,15.70
2010,08,16,04,24,15.60
2010,08,16,04,25,15.60
2010,08,16,04,26,15.60
2010,08,16,04,27,15.60
2010,08,16,04,28,15.50
2010,08,16,04,29,15.50
2010,08,16,04,30,15.50
2010,08,16,04,31,15.50
2010,08,16,04,32,15.50
2010,08,16,04,33,15.50
2010,08,16,04,34,15.40
2010,08,16,04,35,15.40
2010,08,16,04,36,15.40
2010,08,16,04,37,15.40
2010,08,16,04,38,15.30
2010,08,16,04,39,15.30
2010,08,16,04,40,15.30
2010,08,16,04,41,15.30
2010,08,16,04,42,15.30
2010,08,16,04,43,15.30
2010,08,16,04,44,15.30
2010,08,16,04,45,15.30
2010,08,16,04,46,15.30
2010,08,16,04,47,15.30
2010,08,16,04,48,15.30
2010,08,16,04,49,15.30
2010,08,16,04,50,15.30
2010,08,16,04,51,15.30
2010,08,16,04,52,15.30
2010,08,16,04,53,15.30
2010,08,16,04,54,15.30
2010,08,16,04,55,15.30
2010,08,16,04,56,15.30
2010,08,16,04,57,15.20
2010,08,16,04,58,15.20
2010,08,16,04,59,15.20
2010,08,16,05,00,15.20
2010,08,16,05,01,15.20
2010,08,16,05,02,15.20
2010,08,16,05,03,15.20
2010,08,16,05,04,15.20
2010,08,16,05,05,15.20
2010,08,16,05,06,15.20
2010,08,16,05,07,15.20
2010,08,16,05,08,15.20
2010,08,16,05,09,15.20
2010,08,16,05,10,15.10
2010,08,16,05,11,15.10
2010,08,16,05,12,15.10
2010,08,16,05,13,15.10
2010,08,16,05,14,15.10
2010,08,16,05,15,15.10
2010,08,16,05,16,15.10
2010,08,16,05,17,15.10
2010,08,16,05,18,15.10
2010,08,16,05,19,15.10
2010,08,16,05,20,15.10
2010,08,16,05,21,15.10
2010,08,16,05,22,15.10
2010,08,16,05,23,15.10
2010,08,16,05,24,15.10
2010,08,16,05,25,15.00
2010,08,16,05,26,15.00
2010,08,16,05,27,15.00
2010,08,16,05,28,15.00
2010,08,16,05,29,15.00
2010,08,16,05,30,14.90
2010,08,16,05,31,14.90
2010,08,16,05,32,14.90
2010,08,16,05,33,14.90
2010,08,16,05,34,14.90
2010,08,16,05,35,14.90
2010,08,16,05,36,14.90
2010,08,16,05,37,14.80
2010,08,16,05,38,14.80
2010,08,16,05,39,14.80
2010,08,16,05,40,14.80
2010,08,16,05,41,14.80
2010,08,16,05,42,14.80
2010,08,16,05,43,14.80
2010,08,16,05,44,14.70
2010,08,16,05,45,14.70
2010,08,16,05,46,14.70
2010,08,16,05,47,14.70
2010,08,16,05,48,14.60
2010,08,16,05,49,14.60
2010,08,16,05,50,14.60
2010,08,16,05,51,14.60
2010,08,16,05,52,14.60
2010,08,16,05,53,14.60
2010,08,16,05,54,14.60
2010,08,16,05,55,14.60
2010,08,16,05,56,14.50
2010,08,16,05,57,14.50
2010,08,16,05,58,14.50
2010,08,16,05,59,14.50
2010,08,16,06,00,14.50
2010,08,16,06,01,14.50
2010,08,16,06,02,14.50
2010,08,16,06,03,14.50
2010,08,16,06,04,14.40
2010,08,16,06,05,14.40
2010,08,16,06,06,14.40
2010,08,16,06,07,14.40
2010,08,16,06,08,14.40
2010,08,16,06,09,14.40
2010,08,16,06,10,14.40
2010,08,16,06,11,14.40
2010,08,16,06,12,14.40
2010,08,16,06,13,14.40
2010,08,16,06,14,14.40
2010,08,16,06,15,14.40
2010,08,16,06,16,14.40
2010,08,16,06,17,14.40
2010,08,16,06,18,14.40
2010,08,16,06,19,14.40
2010,08,16,06,20,14.40
2010,08,16,06,21,14.40
2010,08,16,06,22,14.30
2010,08,16,06,23,14.30
2010,08,16,06,24,14.30
2010,08,16,06,25,14.30
2010,08,16,06,26,14.30
2010,08,16,06,27,14.30
2010,08,16,06,28,14.30
2010,08,16,06,29,14.30
2010,08,16,06,30,14.30
2010,08,16,06,31,14.40
2010,08,16,06,32,14.40
2010,08,16,06,33,14.40
2010,08,16,06,34,14.40
2010,08,16,06,35,14.40
2010,08,16,06,36,14.50
2010,08,16,06,37,14.50
2010,08,16,06,38,14.50
2010,08,16,06,39,14.50
2010,08,16,06,40,14.50
2010,08,16,06,41,14.50
2010,08,16,06,42,14.60
2010,08,16,06,43,14.60
2010,08,16,06,44,14.60
2010,08,16,06,45,14.60
2010,08,16,06,46,14.60
2010,08,16,06,47,14.60
2010,08,16,06,48,14.70
2010,08,16,06,49,14.70
2010,08,16,06,50,14.80
2010,08,16,06,51,14.80
2010,08,16,06,52,14.80
2010,08,16,06,53,14.80
2010,08,16,06,54,14.80
2010,08,16,06,55,14.80
2010,08,16,06,56,14.90
2010,08,16,06,57,14.90
2010,08,16,06,58,14.90
2010,08,16,06,59,14.90
2010,08,16,07,00,14.90
2010,08,16,07,01,14.90
2010,08,16,07,02,15.00
2010,08,16,07,03,15.00
2010,08,16,07,04,15.10
2010,08,16,07,05,15.10
2010,08,16,07,06,15.10
2010,08,16,07,07,15.20
2010,08,16,07,08,15.20
2010,08,16,07,09,15.20
2010,08,16,07,10,15.30
2010,08,16,07,11,15.30
2010,08,16,07,12,15.40
2010,08,16,07,13,15.50
2010,08,16,07,14,15.50
2010,08,16,07,15,15.60
2010,08,16,07,16,15.60
2010,08,16,07,17,15.70
2010,08,16,07,18,15.70
2010,08,16,07,19,15.80
2010,08,16,07,20,15.80
2010,08,16,07,21,15.80
2010,08,16,07,22,15.80
2010,08,16,07,23,15.80
2010,08,16,07,24,16.00
2010,08,16,07,25,16.10
2010,08,16,07,26,16.10
2010,08,16,07,27,16.20
2010,08,16,07,28,16.30
2010,08,16,07,29,16.40
2010,08,16,07,30,16.40
2010,08,16,07,31,16.60
2010,08,16,07,32,16.70
2010,08,16,07,33,16.70
2010,08,16,07,34,16.80
2010,08,16,07,35,16.90
2010,08,16,07,36,17.00
2010,08,16,07,37,17.10
2010,08,16,07,38,17.20
2010,08,16,07,39,17.30
2010,08,16,07,40,17.30
2010,08,16,07,41,17.40
2010,08,16,07,42,17.50
2010,08,16,07,43,17.60
2010,08,16,07,44,17.70
2010,08,16,07,45,17.80
2010,08,16,07,46,17.90
2010,08,16,07,47,18.00
2010,08,16,07,48,18.10
2010,08,16,07,49,18.20
2010,08,16,07,50,18.30
2010,08,16,07,51,18.40
2010,08,16,07,52,18.50
2010,08,16,07,53,18.60
2010,08,16,07,54,18.70
2010,08,16,07,55,18.70
2010,08,16,07,56,18.80
2010,08,16,07,57,18.90
2010,08,16,07,58,19.00
2010,08,16,07,59,19.10
2010,08,16,08,00,19.20
2010,08,16,08,01,19.30
2010,08,16,08,02,19.40
2010,08,16,08,03,19.50
2010,08,16,08,04,19.60
2010,08,16,08,05,19.60
2010,08,16,08,06,19.70
2010,08,16,08,07,19.80
2010,08,16,08,08,19.90
2010,08,16,08,09,19.90
2010,08,16,08,10,20.00
2010,08,16,08,11,20.10
2010,08,16,08,12,20.20
2010,08,16,08,13,20.20
2010,08,16,08,14,20.30
2010,08,16,08,15,20.40
2010,08,16,08,16,20.50
2010,08,16,08,17,20.60
2010,08,16,08,18,20.70
2010,08,16,08,19,20.80
2010,08,16,08,20,20.90
2010,08,16,08,21,20.90
2010,08,16,08,22,21.00
2010,08,16,08,23,21.10
2010,08,16,08,24,21.10
2010,08,16,08,25,21.20
2010,08,16,08,26,21.30
2010,08,16,08,27,21.40
2010,08,16,08,28,21.40
2010,08,16,08,29,21.60
2010,08,16,08,30,21.60
2010,08,16,08,31,21.60
2010,08,16,08,32,21.70
2010,08,16,08,33,21.80
2010,08,16,08,34,21.90
2010,08,16,08,35,21.90
2010,08,16,08,36,22.00
2010,08,16,08,37,22.10
2010,08,16,08,38,22.10
2010,08,16,08,39,22.20
2010,08,16,08,40,22.30
2010,08,16,08,41,22.40
2010,08,16,08,42,22.50
2010,08,16,08,43,22.50
2010,08,16,08,44,22.50
2010,08,16,08,45,22.60
2010,08,16,08,46,22.60
2010,08,16,08,47,22.70
2010,08,16,08,48,22.70
2010,08,16,08,49,22.80
2010,08,16,08,50,22.80
2010,08,16,08,51,22.90
2010,08,16,08,52,22.90
2010,08,16,08,53,22.90
2010,08,16,08,54,23.00
2010,08,16,08,55,23.10
2010,08,16,08,56,23.10
2010,08,16,08,57,23.10
2010,08,16,08,58,23.10
2010,08,16,08,59,23.10
2010,08,16,09,00,23.10
2010,08,16,09,01,23.10
2010,08,16,09,02,22.90
2010,08,16,09,03,22.90
2010,08,16,09,04,22.90
2010,08,16,09,05,22.90
2010,08,16,09,06,22.80
2010,08,16,09,07,22.90
2010,08,16,09,08,22.90
2010,08,16,09,09,22.80
2010,08,16,09,10,22.80
2010,08,16,09,11,22.70
2010,08,16,09,12,22.60
2010,08,16,09,13,22.50
2010,08,16,09,14,22.40
2010,08,16,09,15,22.30
2010,08,16,09,16,22.30
2010,08,16,09,17,22.20
2010,08,16,09,18,22.10
2010,08,16,09,19,22.10
2010,08,16,09,20,22.10
2010,08,16,09,21,22.10
2010,08,16,09,22,22.10
2010,08,16,09,23,22.10
2010,08,16,09,24,22.10
2010,08,16,09,25,22.10
2010,08,16,09,26,22.00
2010,08,16,09,27,22.00
2010,08,16,09,28,22.00
2010,08,16,09,29,22.00
2010,08,16,09,30,22.00
2010,08,16,09,31,22.10
2010,08,16,09,32,22.10
2010,08,16,09,33,22.20
2010,08,16,09,34,22.30
2010,08,16,09,35,22.40
2010,08,16,09,36,22.50
2010,08,16,09,37,22.60
2010,08,16,09,38,22.70
2010,08,16,09,39,22.80
2010,08,16,09,40,22.90
2010,08,16,09,41,23.10
2010,08,16,09,42,23.30
2010,08,16,09,43,23.30
2010,08,16,09,44,23.20
2010,08,16,09,45,23.00
2010,08,16,09,46,22.90
2010,08,16,09,47,22.70
2010,08,16,09,48,22.60
2010,08,16,09,49,22.40
2010,08,16,09,50,22.40
2010,08,16,09,51,22.30
2010,08,16,09,52,22.30
2010,08,16,09,53,22.30
2010,08,16,09,54,22.30
2010,08,16,09,55,22.30
2010,08,16,09,56,22.30
2010,08,16,09,57,22.30
2010,08,16,09,58,22.40
2010,08,16,09,59,22.40
2010,08,16,10,00,22.50
2010,08,16,10,01,22.50
2010,08,16,10,02,22.60
2010,08,16,10,03,22.70
2010,08,16,10,04,22.80
2010,08,16,10,05,22.90
2010,08,16,10,06,22.90
2010,08,16,10,07,23.00
2010,08,16,10,08,23.10
2010,08,16,10,09,23.10
2010,08,16,10,10,23.20
2010,08,16,10,11,23.30
2010,08,16,10,12,23.50
2010,08,16,10,13,23.70
2010,08,16,10,14,23.80
2010,08,16,10,15,23.80
2010,08,16,10,16,23.80
2010,08,16,10,17,23.90
2010,08,16,10,18,24.00
2010,08,16,10,19,24.10
2010,08,16,10,20,24.20
2010,08,16,10,21,24.40
2010,08,16,10,22,24.50
2010,08,16,10,23,24.60
2010,08,16,10,24,24.70
2010,08,16,10,25,24.80
2010,08,16,10,26,24.90
2010,08,16,10,27,24.90
2010,08,16,10,28,25.00
2010,08,16,10,29,25.10
2010,08,16,10,30,25.10
2010,08,16,10,31,25.20
2010,08,16,10,32,25.20
2010,08,16,10,33,25.20
2010,08,16,10,34,25.20
2010,08,16,10,35,25.20
2010,08,16,10,36,25.20
2010,08,16,10,37,25.20
2010,08,16,10,38,25.20
2010,08,16,10,39,25.20
2010,08,16,10,40,25.20
2010,08,16,10,41,25.20
2010,08,16,10,42,25.20
2010,08,16,10,43,25.20
2010,08,16,10,44,25.20
2010,08,16,10,45,25.20
2010,08,16,10,46,25.10
2010,08,16,10,47,25.10
2010,08,16,10,48,25.00
2010,08,16,10,49,24.80
2010,08,16,10,50,24.60
2010,08,16,10,51,24.50
2010,08,16,10,52,24.50
2010,08,16,10,53,24.40
2010,08,16,10,54,24.40
2010,08,16,10,55,24.40
2010,08,16,10,56,24.40
2010,08,16,10,57,24.40
2010,08,16,10,58,24.40
2010,08,16,10,59,24.50
2010,08,16,11,00,24.50
2010,08,16,11,01,24.50
2010,08,16,11,02,24.60
2010,08,16,11,03,24.60
2010,08,16,11,04,24.60
2010,08,16,11,05,24.50
2010,08,16,11,06,24.40
2010,08,16,11,07,24.40
2010,08,16,11,08,24.30
2010,08,16,11,09,24.30
2010,08,16,11,10,24.30
2010,08,16,11,11,24.30
2010,08,16,11,12,24.40
2010,08,16,11,13,24.40
2010,08,16,11,14,24.30
2010,08,16,11,15,24.30
2010,08,16,11,16,24.20
2010,08,16,11,17,24.30
2010,08,16,11,18,24.40
2010,08,16,11,19,24.50
2010,08,16,11,20,24.60
2010,08,16,11,21,24.70
2010,08,16,11,22,24.90
2010,08,16,11,23,25.00
2010,08,16,11,24,25.10
2010,08,16,11,25,25.20
2010,08,16,11,26,25.20
2010,08,16,11,27,25.30
2010,08,16,11,28,25.30
2010,08,16,11,29,25.40
2010,08,16,11,30,25.40
2010,08,16,11,31,25.50
2010,08,16,11,32,25.50
2010,08,16,11,33,25.40
2010,08,16,11,34,25.30
2010,08,16,11,35,25.10
2010,08,16,11,36,25.00
2010,08,16,11,37,24.90
2010,08,16,11,38,24.80
2010,08,16,11,39,24.70
2010,08,16,11,40,24.70
2010,08,16,11,41,24.80
2010,08,16,11,42,24.90
2010,08,16,11,43,24.90
2010,08,16,11,44,24.90
2010,08,16,11,45,24.90
2010,08,16,11,46,24.80
2010,08,16,11,47,24.70
2010,08,16,11,48,24.70
2010,08,16,11,49,24.80
2010,08,16,11,50,24.90
2010,08,16,11,51,25.10
2010,08,16,11,52,25.30
2010,08,16,11,53,25.40
2010,08,16,11,54,25.50
2010,08,16,11,55,25.70
2010,08,16,11,56,25.90
2010,08,16,11,57,25.90
2010,08,16,11,58,26.00
2010,08,16,11,59,26.10
2010,08,16,12,00,26.20
2010,08,16,12,01,26.40
2010,08,16,12,02,26.50
2010,08,16,12,03,26.60
2010,08,16,12,04,26.70
2010,08,16,12,05,26.70
2010,08,16,12,06,26.80
2010,08,16,12,07,26.80
2010,08,16,12,08,26.80
2010,08,16,12,09,26.80
2010,08,16,12,10,26.70
2010,08,16,12,11,26.70
2010,08,16,12,12,26.70
2010,08,16,12,13,26.80
2010,08,16,12,14,26.80
2010,08,16,12,15,26.80
2010,08,16,12,16,26.80
2010,08,16,12,17,26.80
2010,08,16,12,18,26.90
2010,08,16,12,19,26.90
2010,08,16,12,20,26.90
2010,08,16,12,21,27.10
2010,08,16,12,22,27.00
2010,08,16,12,23,26.90
2010,08,16,12,24,26.90
2010,08,16,12,25,26.80
2010,08,16,12,26,26.80
2010,08,16,12,27,26.90
2010,08,16,12,28,26.90
2010,08,16,12,29,26.80
2010,08,16,12,30,26.80
2010,08,16,12,31,26.80
2010,08,16,12,32,26.80
2010,08,16,12,33,26.80
2010,08,16,12,34,26.80
2010,08,16,12,35,26.80
2010,08,16,12,36,26.80
2010,08,16,12,37,26.70
2010,08,16,12,38,26.70
2010,08,16,12,39,26.70
2010,08,16,12,40,26.70
2010,08,16,12,41,26.70
2010,08,16,12,42,26.70
2010,08,16,12,43,26.60
2010,08,16,12,44,26.60
2010,08,16,12,45,26.60
2010,08,16,12,46,26.60
2010,08,16,12,47,26.60
2010,08,16,12,48,26.50
2010,08,16,12,49,26.40
2010,08,16,12,50,26.30
2010,08,16,12,51,26.10
2010,08,16,12,52,26.00
2010,08,16,12,53,25.90
2010,08,16,12,54,25.90
2010,08,16,12,55,25.90
2010,08,16,12,56,25.90
2010,08,16,12,57,26.00
2010,08,16,12,58,26.00
2010,08,16,12,59,26.00
2010,08,16,13,00,25.90
2010,08,16,13,01,26.00
2010,08,16,13,02,26.00
2010,08,16,13,03,26.10
2010,08,16,13,04,26.20
2010,08,16,13,05,26.20
2010,08,16,13,06,26.20
2010,08,16,13,07,26.20
2010,08,16,13,08,26.20
2010,08,16,13,09,26.10
2010,08,16,13,10,26.10
2010,08,16,13,11,26.20
2010,08,16,13,12,26.20
2010,08,16,13,13,26.20
2010,08,16,13,14,26.30
2010,08,16,13,15,26.30
2010,08,16,13,16,26.30
2010,08,16,13,17,26.30
2010,08,16,13,18,26.30
2010,08,16,13,19,26.30
2010,08,16,13,20,26.30
2010,08,16,13,21,26.30
2010,08,16,13,22,26.40
2010,08,16,13,23,26.50
2010,08,16,13,24,26.60
2010,08,16,13,25,26.60
2010,08,16,13,26,26.70
2010,08,16,13,27,26.80
2010,08,16,13,28,26.90
2010,08,16,13,29,27.00
2010,08,16,13,30,27.20
2010,08,16,13,31,27.20
2010,08,16,13,32,27.10
2010,08,16,13,33,27.10
2010,08,16,13,34,27.00
2010,08,16,13,35,26.90
2010,08,16,13,36,26.80
2010,08,16,13,37,26.80
2010,08,16,13,38,26.70
2010,08,16,13,39,26.70
2010,08,16,13,40,26.60
2010,08,16,13,41,26.60
2010,08,16,13,42,26.60
2010,08,16,13,43,26.60
2010,08,16,13,44,26.70
2010,08,16,13,45,26.80
2010,08,16,13,46,26.80
2010,08,16,13,47,26.80
2010,08,16,13,48,26.80
2010,08,16,13,49,26.70
2010,08,16,13,50,26.70
2010,08,16,13,51,26.60
2010,08,16,13,52,26.60
2010,08,16,13,53,26.70
2010,08,16,13,54,26.70
2010,08,16,13,55,26.70
2010,08,16,13,56,26.70
2010,08,16,13,57,26.80
2010,08,16,13,58,26.90
2010,08,16,13,59,27.00
2010,08,16,14,00,27.10
2010,08,16,14,01,27.20
2010,08,16,14,02,27.20
2010,08,16,14,03,27.30
2010,08,16,14,04,27.30
2010,08,16,14,05,27.30
2010,08,16,14,06,27.40
2010,08,16,14,07,27.50
2010,08,16,14,08,27.60
2010,08,16,14,09,27.60
2010,08,16,14,10,27.50
2010,08,16,14,11,27.40
2010,08,16,14,12,27.40
2010,08,16,14,13,27.40
2010,08,16,14,14,27.40
2010,08,16,14,15,27.40
2010,08,16,14,16,27.40
2010,08,16,14,17,27.40
2010,08,16,14,18,27.40
2010,08,16,14,19,27.40
2010,08,16,14,20,27.40
2010,08,16,14,21,27.40
2010,08,16,14,22,27.40
2010,08,16,14,23,27.40
2010,08,16,14,24,27.30
2010,08,16,14,25,27.30
2010,08,16,14,26,27.30
2010,08,16,14,27,27.30
2010,08,16,14,28,27.30
2010,08,16,14,29,27.20
2010,08,16,14,30,27.20
2010,08,16,14,31,27.20
2010,08,16,14,32,27.20
2010,08,16,14,33,27.20
2010,08,16,14,34,27.30
2010,08,16,14,35,27.30
2010,08,16,14,36,27.30
2010,08,16,14,37,27.30
2010,08,16,14,38,27.30
2010,08,16,14,39,27.20
2010,08,16,14,40,27.10
2010,08,16,14,41,27.20
2010,08,16,14,42,27.20
2010,08,16,14,43,27.30
2010,08,16,14,44,27.30
2010,08,16,14,45,27.30
2010,08,16,14,46,27.30
2010,08,16,14,47,27.30
2010,08,16,14,48,27.30
2010,08,16,14,49,27.30
2010,08,16,14,50,27.30
2010,08,16,14,51,27.30
2010,08,16,14,52,27.30
2010,08,16,14,53,27.30
2010,08,16,14,54,27.30
2010,08,16,14,55,27.20
2010,08,16,14,56,27.20
2010,08,16,14,57,27.10
2010,08,16,14,58,27.10
2010,08,16,14,59,27.10
2010,08,16,15,00,27.10
2010,08,16,15,01,27.10
2010,08,16,15,02,27.10
2010,08,16,15,03,27.10
2010,08,16,15,04,27.10
2010,08,16,15,05,27.10
2010,08,16,15,06,27.10
2010,08,16,15,07,27.00
2010,08,16,15,08,26.90
2010,08,16,15,09,26.90
2010,08,16,15,10,27.10
2010,08,16,15,11,27.10
2010,08,16,15,12,27.10
2010,08,16,15,13,27.10
2010,08,16,15,14,27.20
2010,08,16,15,15,27.20
2010,08,16,15,16,27.20
2010,08,16,15,17,27.20
2010,08,16,15,18,27.20
2010,08,16,15,19,27.30
2010,08,16,15,20,27.30
2010,08,16,15,21,27.30
2010,08,16,15,22,27.30
2010,08,16,15,23,27.20
2010,08,16,15,24,27.10
2010,08,16,15,25,27.10
2010,08,16,15,26,27.10
2010,08,16,15,27,27.10
2010,08,16,15,28,27.10
2010,08,16,15,29,27.20
2010,08,16,15,30,27.20
2010,08,16,15,31,27.30
2010,08,16,15,32,27.30
2010,08,16,15,33,27.30
2010,08,16,15,34,27.30
2010,08,16,15,35,27.40
2010,08,16,15,36,27.40
2010,08,16,15,37,27.60
2010,08,16,15,38,27.60
2010,08,16,15,39,27.70
2010,08,16,15,40,27.70
2010,08,16,15,41,27.70
2010,08,16,15,42,27.70
2010,08,16,15,43,27.60
2010,08,16,15,44,27.60
2010,08,16,15,45,27.50
2010,08,16,15,46,27.40
2010,08,16,15,47,27.40
2010,08,16,15,48,27.40
2010,08,16,15,49,27.40
2010,08,16,15,50,27.40
2010,08,16,15,51,27.30
2010,08,16,15,52,27.30
2010,08,16,15,53,27.40
2010,08,16,15,54,27.50
2010,08,16,15,55,27.60
2010,08,16,15,56,27.70
2010,08,16,15,57,27.70
2010,08,16,15,58,27.80
2010,08,16,15,59,27.90
2010,08,16,16,00,28.00
2010,08,16,16,01,28.10
2010,08,16,16,02,28.10
2010,08,16,16,03,28.10
2010,08,16,16,04,28.10
2010,08,16,16,05,28.10
2010,08,16,16,06,28.10
2010,08,16,16,07,28.00
2010,08,16,16,08,28.00
2010,08,16,16,09,28.00
2010,08,16,16,10,28.10
2010,08,16,16,11,28.10
2010,08,16,16,12,28.10
2010,08,16,16,13,28.00
2010,08,16,16,14,28.00
2010,08,16,16,15,27.90
2010,08,16,16,16,27.90
2010,08,16,16,17,27.90
2010,08,16,16,18,27.80
2010,08,16,16,19,27.70
2010,08,16,16,20,27.70
2010,08,16,16,21,27.70
2010,08,16,16,22,27.80
2010,08,16,16,23,27.80
2010,08,16,16,24,27.80
2010,08,16,16,25,27.80
2010,08,16,16,26,27.70
2010,08,16,16,27,27.70
2010,08,16,16,28,27.60
2010,08,16,16,29,27.60
2010,08,16,16,30,27.60
2010,08,16,16,31,27.50
2010,08,16,16,32,27.60
2010,08,16,16,33,27.60
2010,08,16,16,34,27.70
2010,08,16,16,35,27.70
2010,08,16,16,36,27.70
2010,08,16,16,37,27.60
2010,08,16,16,38,27.50
2010,08,16,16,39,27.40
2010,08,16,16,40,27.20
2010,08,16,16,41,27.10
2010,08,16,16,42,27.00
2010,08,16,16,43,26.90
2010,08,16,16,44,26.70
2010,08,16,16,45,26.60
2010,08,16,16,46,26.60
2010,08,16,16,47,26.60
2010,08,16,16,48,26.60
2010,08,16,16,49,26.60
2010,08,16,16,50,26.50
2010,08,16,16,51,26.40
2010,08,16,16,52,26.40
2010,08,16,16,53,26.30
2010,08,16,16,54,26.20
2010,08,16,16,55,26.00
2010,08,16,16,56,25.90
2010,08,16,16,57,25.80
2010,08,16,16,58,25.80
2010,08,16,16,59,25.70
2010,08,16,17,00,25.70
2010,08,16,17,01,25.70
2010,08,16,17,02,25.70
2010,08,16,17,03,25.70
2010,08,16,17,04,25.80
2010,08,16,17,05,25.80
2010,08,16,17,06,25.90
2010,08,16,17,07,25.80
2010,08,16,17,08,25.80
2010,08,16,17,09,25.80
2010,08,16,17,10,25.80
2010,08,16,17,11,25.80
2010,08,16,17,12,25.80
2010,08,16,17,13,25.80
2010,08,16,17,14,25.80
2010,08,16,17,15,25.70
2010,08,16,17,16,25.60
2010,08,16,17,17,25.40
2010,08,16,17,18,25.40
2010,08,16,17,19,25.40